FW8883 Weather Reports


time (UTC)temp
C
wind
direction
speed
KPH
gust
KPH
rain 1hr
cm
rain 24hr
cm
rain mn
cm
humidity
%
barometer
mb
20260508010031 10 59 0.0 0.0 0.00 0.08 0.05 52 1008.3
20260508005529 10 59 0.0 0.0 0.00 0.08 0.05 52 1008.2
20260508005031 11 59 0.0 0.0 0.00 0.08 0.05 52 1008.0
20260508004530 11 59 0.0 0.0 0.00 0.08 0.05 51 1008.0
20260508004030 11 59 0.0 0.0 0.00 0.08 0.05 52 1007.9
20260508003530 11 59 0.0 0.0 0.00 0.08 0.05 50 1007.9
20260508003031 11 59 0.0 0.0 0.00 0.08 0.05 50 1007.9
20260508002530 11 59 0.0 0.0 0.00 0.08 0.05 49 1007.7
20260508002030 12 59 0.0 0.0 0.00 0.08 0.05 49 1007.7
20260508001821 12 59 0.0 1.6 0.00 0.08 0.05 48 1007.7
20260508001030 12 59 0.0 1.6 0.00 0.08 0.05 48 1007.7
20260508000529 12 59 0.0 1.6 0.00 0.08 0.05 46 1007.7
20260508000030 12 59 0.0 1.6 0.00 0.08 0.05 46 1007.5
20260507235531 12 59 0.0 1.6 0.00 0.08 0.05 45 1007.5
20260507235030 12 59 0.0 1.6 0.00 0.08 0.05 44 1007.4
20260507234529 13 59 0.0 1.6 0.00 0.08 0.05 44 1007.4
20260507234030 13 59 0.0 3.2 0.00 0.10 0.05 44 1007.4
20260507233529 13 59 0.0 3.2 0.00 0.10 0.05 45 1007.3
20260507233030 13 268 0.0 4.8 0.00 0.10 0.05 44 1007.3
20260507232530 13 268 0.0 4.8 0.00 0.10 0.05 43 1007.2
20260507232029 13 245 1.6 8.0 0.00 0.13 0.05 44 1007.2
20260507231531 13 253 1.6 8.0 0.00 0.15 0.05 41 1007.2
20260507231026 13 119 1.6 6.4 0.00 0.18 0.05 41 1007.1
20260507230819 13 74 1.6 6.4 0.00 0.18 0.05 44 1007.1
20260507230030 13 247 1.6 6.4 0.00 0.20 0.05 40 1007.1
20260507225527 13 251 1.6 6.4 0.00 0.20 0.05 41 1007.0
20260507225027 13 258 1.6 6.4 0.00 0.23 0.05 43 1007.0
20260507224813 14 265 1.6 4.8 0.00 0.23 0.05 42 1006.9
20260507224023 14 252 1.6 8.0 0.00 0.23 0.05 42 1006.9
20260507223521 14 126 1.6 11.3 0.00 0.23 0.05 44 1006.8
20260507223017 14 258 1.6 11.3 0.00 0.23 0.05 45 1006.7
20260507222517 14 307 1.6 8.0 0.00 0.23 0.05 42 1006.6
20260507222014 14 355 0.0 8.0 0.00 0.25 0.05 41 1006.6
20260507221812 14 197 1.6 3.2 0.00 0.25 0.05 40 1006.6
20260507221307 14 100 1.6 11.3 0.00 0.25 0.05 42 1006.5
20260507220509 15 317 3.2 11.3 0.00 0.28 0.05 39 1006.5
20260507220007 15 278 3.2 9.7 0.00 0.30 0.05 40 1006.5
20260507215509 15 254 3.2 11.3 0.00 0.30 0.05 38 1006.4
20260507215007 15 89 3.2 11.3 0.00 0.33 0.05 38 1006.4
20260507214502 15 323 1.6 9.7 0.00 0.36 0.05 39 1006.5
20260507214256 15 286 1.6 9.7 0.00 0.36 0.05 39 1006.4
20260507213501 15 252 1.6 9.7 0.00 0.36 0.05 37 1006.3
20260507213000 15 138 1.6 6.4 0.00 0.36 0.05 43 1006.3
20260507212500 15 210 1.6 6.4 0.00 0.36 0.05 43 1006.3
20260507212003 15 260 1.6 6.4 0.00 0.36 0.05 37 1006.3
20260507211459 15 338 3.2 8.0 0.00 0.36 0.05 38 1006.4
20260507210955 16 223 3.2 9.7 0.00 0.38 0.05 38 1006.4
20260507210454 16 298 1.6 9.7 0.00 0.38 0.05 41 1006.3
20260507205953 16 259 1.6 8.0 0.00 0.41 0.05 37 1006.3
20260507205453 16 306 3.2 8.0 0.00 0.41 0.05 39 1006.3
20260507204951 16 187 3.2 12.9 0.00 0.41 0.05 40 1006.3
20260507204748 16 97 3.2 12.9 0.00 0.43 0.05 36 1006.2
20260507203951 16 71 1.6 6.4 0.00 0.43 0.05 36 1006.0
20260507203447 16 309 1.6 8.0 0.00 0.43 0.05 38 1006.0
20260507202945 16 288 3.2 12.9 0.00 0.46 0.05 35 1006.1
20260507202445 16 193 3.2 12.9 0.00 0.46 0.05 37 1006.0
20260507201945 16 83 1.6 9.7 0.00 0.48 0.05 36 1006.2
20260507201444 16 121 3.2 11.3 0.00 0.48 0.05 40 1006.1
20260507200945 16 187 3.2 11.3 0.00 0.48 0.05 36 1006.2
20260507200445 16 314 3.2 11.3 0.00 0.51 0.05 38 1006.1
20260507195937 16 221 3.2 11.3 0.00 0.51 0.05 35 1006.1
20260507195730 17 18 3.2 11.3 0.00 0.51 0.05 42 1006.2
20260507194939 16 51 3.2 11.3 0.00 0.51 0.05 38 1006.2
20260507194436 17 5 3.2 11.3 0.00 0.51 0.05 36 1006.4
20260507193935 17 95 3.2 8.0 0.00 0.51 0.05 36 1006.3
20260507193435 17 244 3.2 11.3 0.00 0.51 0.05 36 1006.4
20260507192935 17 180 3.2 11.3 0.00 0.51 0.05 39 1006.6
20260507192435 17 69 3.2 9.7 0.00 0.53 0.05 35 1006.4
20260507191933 16 257 3.2 11.3 0.00 0.53 0.05 42 1006.6
20260507191433 16 238 3.2 14.5 0.00 0.53 0.05 35 1006.6
20260507191228 16 316 3.2 14.5 0.00 0.56 0.05 36 1006.7
20260507190433 16 0 3.2 9.7 0.00 0.56 0.05 44 1006.9
20260507185931 16 62 3.2 8.0 0.00 0.58 0.05 41 1006.9
20260507185433 16 244 3.2 8.0 0.00 0.58 0.05 37 1006.8
20260507184931 16 261 3.2 11.3 0.00 0.58 0.05 40 1007.0
20260507184431 16 242 1.6 11.3 0.00 0.61 0.05 38 1007.0
20260507184224 16 231 1.6 8.0 0.00 0.61 0.05 39 1007.0
20260507183431 17 74 3.2 14.5 0.00 0.61 0.05 41 1007.0
20260507183223 17 242 3.2 16.1 0.00 0.64 0.05 47 1007.0
20260507182420 17 159 3.2 16.1 0.00 0.64 0.05 38 1007.0
20260507181914 17 286 3.2 12.9 0.00 0.64 0.05 38 1007.0
20260507181408 17 291 3.2 12.9 0.00 0.64 0.05 35 1007.1
20260507180903 17 316 3.2 14.5 0.00 0.64 0.05 36 1007.1
20260507180503 17 300 3.2 12.9 0.00 0.64 0.05 43 1007.1
20260507180443 17 270 3.2 14.5 0.00 0.64 0.05 40 1007.1
20260507175451 17 319 3.2 12.9 0.00 0.64 0.05 45 1006.9
20260507175432 17 149 3.2 12.9 0.00 0.64 0.05 41 1007.1
20260507174401 17 123 3.2 9.7 0.00 0.64 0.05 38 1006.9
20260507174154 17 248 3.2 16.1 0.00 0.64 0.05 42 1006.9
20260507173403 17 260 3.2 16.1 0.00 0.64 0.05 40 1007.0
20260507172903 17 205 3.2 12.9 0.00 0.64 0.05 43 1007.0
20260507172404 17 224 3.2 12.9 0.00 0.64 0.05 42 1007.1
20260507171904 17 206 3.2 14.5 0.00 0.64 0.05 41 1007.0
20260507171400 17 123 3.2 14.5 0.00 0.64 0.05 38 1007.0
20260507170903 17 248 3.2 14.5 0.00 0.64 0.05 49 1007.3
20260507170402 17 94 3.2 11.3 0.00 0.64 0.05 48 1007.1
20260507165901 17 71 3.2 12.9 0.00 0.64 0.05 43 1007.4
20260507165401 16 267 4.8 19.3 0.00 0.64 0.05 45 1007.5
20260507164902 16 219 4.8 19.3 0.00 0.64 0.05 40 1007.6
20260507164403 16 276 4.8 14.5 0.00 0.64 0.05 47 1007.6
20260507163857 16 269 3.2 11.3 0.00 0.64 0.05 40 1007.5
20260507163350 16 330 3.2 12.9 0.00 0.64 0.05 49 1007.6
20260507162845 17 185 3.2 14.5 0.00 0.64 0.05 48 1007.6
20260507162338 16 195 3.2 17.7 0.00 0.64 0.05 49 1007.6
20260507161833 16 236 3.2 17.7 0.00 0.64 0.05 54 1007.7
20260507161326 15 112 3.2 9.7 0.00 0.64 0.05 55 1007.8
20260507161117 16 209 3.2 11.3 0.00 0.64 0.05 56 1007.8
20260507160602 15 105 3.2 11.3 0.00 0.64 0.05 56 1007.8
20260507155812 14 246 3.2 14.5 0.00 0.64 0.05 58 1008.0
20260507155306 15 105 3.2 14.5 0.00 0.64 0.05 61 1008.0
20260507154803 15 242 3.2 14.5 0.00 0.64 0.05 58 1008.0
20260507154600 14 267 3.2 8.0 0.00 0.64 0.05 61 1008.1
20260507153803 15 230 3.2 12.9 0.00 0.64 0.05 60 1008.2
20260507153600 15 260 1.6 12.9 0.00 0.64 0.05 61 1008.1
20260507152803 14 287 1.6 11.3 0.00 0.64 0.05 67 1008.2
20260507152306 14 126 1.6 8.0 0.00 0.64 0.05 65 1008.3
20260507151803 14 178 1.6 8.0 0.00 0.64 0.05 59 1008.2
20260507151303 15 179 1.6 6.4 0.00 0.64 0.05 61 1008.3
20260507151102 13 124 1.6 6.4 0.00 0.64 0.05 65 1008.5
20260507150304 13 245 1.6 6.4 0.00 0.64 0.05 65 1008.6
20260507145803 13 198 1.6 11.3 0.00 0.64 0.05 62 1008.7
20260507145307 14 298 3.2 12.9 0.00 0.64 0.05 63 1008.7
20260507144804 14 241 3.2 12.9 0.00 0.64 0.05 63 1008.5
20260507144303 14 273 3.2 8.0 0.00 0.64 0.05 59 1008.7
20260507143804 15 273 3.2 8.0 0.00 0.64 0.05 63 1008.5
20260507143305 15 139 1.6 4.8 0.00 0.64 0.05 62 1008.4
20260507142804 15 221 3.2 9.7 0.00 0.64 0.05 63 1008.5
20260507142301 14 290 3.2 9.7 0.00 0.64 0.05 58 1008.4
20260507142102 14 0 3.2 11.3 0.00 0.64 0.05 60 1008.6
20260507141300 14 240 3.2 11.3 0.00 0.64 0.05 63 1008.5
20260507140801 13 53 3.2 9.7 0.00 0.64 0.05 63 1008.5
20260507140606 13 252 3.2 11.3 0.00 0.64 0.05 63 1008.5
20260507135800 13 263 3.2 11.3 0.00 0.64 0.05 65 1008.4
20260507135558 13 119 3.2 11.3 0.00 0.64 0.05 64 1008.4
20260507134801 13 284 3.2 9.7 0.00 0.64 0.05 66 1008.5
20260507134301 13 131 3.2 9.7 0.00 0.64 0.05 66 1008.4
20260507133803 13 223 3.2 9.7 0.00 0.64 0.05 66 1008.5
20260507133303 12 271 1.6 9.7 0.00 0.64 0.05 70 1008.6
20260507132801 12 313 1.6 9.7 0.00 0.64 0.05 68 1008.7
20260507132301 12 243 1.6 6.4 0.00 0.64 0.05 68 1009.0
20260507131802 12 309 1.6 6.4 0.00 0.64 0.05 66 1008.9
20260507131300 12 267 1.6 6.4 0.00 0.64 0.05 67 1009.0
20260507130756 12 51 1.6 6.4 0.00 0.64 0.05 68 1008.9
20260507130255 11 239 1.6 11.3 0.00 0.64 0.05 73 1008.9
20260507125757 11 337 1.6 11.3 0.00 0.64 0.05 70 1009.0
20260507125256 11 296 1.6 8.0 0.00 0.64 0.05 72 1009.1
20260507124754 11 255 3.2 6.4 0.03 0.64 0.05 73 1009.0
20260507124255 11 263 1.6 6.4 0.03 0.64 0.05 75 1009.0
20260507123754 11 259 1.6 8.0 0.03 0.64 0.05 74 1009.0
20260507123252 10 302 1.6 8.0 0.03 0.64 0.05 77 1009.1
20260507123053 10 281 1.6 6.4 0.03 0.64 0.05 78 1009.1
20260507122555 10 232 1.6 4.8 0.03 0.64 0.05 81 1009.2
20260507121753 9 277 1.6 6.4 0.03 0.64 0.05 84 1009.2
20260507121251 9 290 1.6 6.4 0.03 0.64 0.05 85 1009.2
20260507120750 9 30 1.6 6.4 0.03 0.64 0.05 85 1009.1
20260507120252 9 248 1.6 6.4 0.03 0.64 0.05 85 1009.2
20260507115750 8 181 1.6 6.4 0.03 0.64 0.05 85 1009.1
20260507115250 8 259 1.6 6.4 0.03 0.64 0.05 86 1009.2
20260507114752 9 254 0.0 6.4 0.00 0.61 0.03 87 1009.1
20260507114253 9 257 0.0 6.4 0.00 0.61 0.03 88 1009.1
20260507113752 9 257 1.6 6.4 0.00 0.61 0.03 88 1009.0
20260507113253 8 343 0.0 4.8 0.00 0.61 0.03 88 1008.8
20260507112748 8 330 1.6 4.8 0.00 0.61 0.03 88 1008.8
20260507112249 8 254 0.0 4.8 0.00 0.61 0.03 91 1008.9
20260507111749 7 253 0.0 3.2 0.00 0.61 0.03 91 1008.8
20260507111248 7 253 0.0 3.2 0.00 0.61 0.03 91 1009.0
20260507111035 7 253 0.0 4.8 0.00 0.61 0.03 92 1009.0
20260507110248 7 253 0.0 4.8 0.00 0.61 0.03 92 1008.9
20260507105746 7 253 0.0 3.2 0.00 0.61 0.03 92 1008.7
20260507105248 7 253 0.0 4.8 0.00 0.61 0.03 92 1008.6
20260507104748 7 253 0.0 4.8 0.00 0.61 0.03 92 1008.4
20260507104621 7 275 0.0 3.2 0.00 0.61 0.03 92 1008.4
20260507104316 7 275 0.0 3.2 0.00 0.61 0.03 92 1008.6
20260507103243 7 248 0.0 3.2 0.00 0.61 0.03 92 1008.5
20260507103037 7 244 1.6 4.8 0.00 0.61 0.03 92 1008.3
20260507102244 7 244 1.6 4.8 0.00 0.61 0.03 92 1008.2
20260507101744 7 236 0.0 3.2 0.00 0.61 0.03 92 1008.5
20260507101242 8 234 0.0 3.2 0.00 0.61 0.03 92 1008.2
20260507101030 8 254 0.0 3.2 0.00 0.61 0.03 92 1008.3
20260507100535 8 254 0.0 8.0 0.00 0.61 0.03 92 1008.3
20260507095739 8 254 0.0 8.0 0.00 0.61 0.03 92 1008.4
20260507095238 8 229 0.0 4.8 0.00 0.61 0.03 92 1008.7
20260507094740 8 261 0.0 4.8 0.00 0.61 0.03 92 1008.5
20260507094237 8 355 0.0 4.8 0.00 0.61 0.03 92 1008.6
20260507093736 8 298 0.0 4.8 0.00 0.61 0.03 92 1008.5
20260507093236 8 275 0.0 3.2 0.00 0.61 0.03 92 1008.4
20260507092739 8 275 1.6 9.7 0.00 0.61 0.03 91 1008.4
20260507092236 8 286 1.6 9.7 0.00 0.61 0.03 91 1008.4
20260507091736 8 281 0.0 4.8 0.00 0.61 0.03 91 1008.5
20260507091237 8 273 0.0 1.6 0.00 0.61 0.03 92 1008.5
20260507090734 8 273 0.0 3.2 0.03 0.61 0.03 91 1008.6
20260507090519 8 273 0.0 3.2 0.03 0.61 0.03 91 1008.2
20260507085732 8 273 0.0 1.6 0.03 0.61 0.03 91 1008.1
20260507085231 8 273 0.0 1.6 0.03 0.61 0.03 91 1008.5
20260507084731 8 273 0.0 1.6 0.03 0.61 0.03 91 1008.4
20260507084230 8 273 0.0 1.6 0.03 0.61 0.03 90 1008.2
20260507084022 8 273 0.0 1.6 0.03 0.61 0.03 90 1007.9
20260507083227 8 273 0.0 3.2 0.03 0.61 0.03 90 1007.9
20260507083018 8 273 0.0 3.2 0.03 0.61 0.03 90 1008.0
20260507082226 8 273 0.0 3.2 0.03 0.61 0.03 90 1008.1
20260507082020 8 273 0.0 1.6 0.03 0.61 0.03 89 1008.1
20260507081225 8 273 0.0 3.2 0.03 0.61 0.03 89 1007.8
20260507080722 8 273 1.6 3.2 0.00 0.58 0.00 89 1007.7
20260507080219 9 254 1.6 6.4 0.00 0.58 0.00 89 1007.9
20260507075717 9 239 0.0 6.4 0.00 0.58 0.00 89 1008.1
20260507075216 9 236 0.0 3.2 0.00 0.58 0.00 89 1008.3
20260507074715 9 236 1.6 6.4 0.00 0.58 0.00 89 1008.2
20260507074212 9 236 1.6 6.4 0.00 0.58 0.00 89 1008.0
20260507073710 9 235 1.6 6.4 0.00 0.58 0.00 89 1007.9
20260507073601 9 241 0.0 6.4 0.00 0.58 0.00 89 1007.7
20260507073246 9 244 1.6 6.4 0.00 0.58 0.00 89 1007.8
20260507072459 9 302 0.0 4.8 0.00 0.58 0.00 89 1007.8
20260507071706 9 302 1.6 4.8 0.00 0.58 0.00 89 1007.7
20260507071455 9 252 1.6 6.4 0.00 0.58 0.00 89 1007.8
20260507070705 9 238 1.6 9.7 0.00 0.58 0.00 89 1007.8
20260507070202 9 246 1.6 9.7 0.00 0.58 0.00 90 1008.0
20260507065702 9 304 1.6 9.7 0.00 0.58 0.00 90 1007.8
20260507065204 9 333 3.2 9.7 0.00 0.58 0.00 90 1007.6
20260507064700 9 306 3.2 11.3 0.00 0.58 0.00 90 1007.5
20260507064448 10 261 1.6 11.3 0.00 0.58 0.00 91 1007.7
20260507063648 10 246 1.6 9.7 0.00 0.58 0.00 91 1007.7
20260507063142 10 257 1.6 6.4 0.00 0.58 0.00 91 1007.5
20260507062637 10 232 1.6 4.8 0.00 0.58 0.00 91 1007.4
20260507062133 10 78 0.0 4.8 0.00 0.58 0.00 91 1007.4
20260507061631 10 78 0.0 3.2 0.00 0.58 0.00 91 1007.3
20260507061133 10 78 0.0 4.8 0.00 0.58 0.00 91 1007.2
20260507060632 10 78 1.6 4.8 0.00 0.58 0.00 91 1007.5
20260507060134 10 237 1.6 4.8 0.00 0.58 0.00 91 1007.7
20260507055635 10 20 0.0 4.8 0.00 0.58 0.00 92 1007.7
20260507055131 10 264 0.0 6.4 0.00 0.58 0.00 92 1007.7
20260507054631 10 258 0.0 6.4 0.00 0.58 0.00 92 1007.7
20260507054423 11 272 0.0 3.2 0.00 0.58 0.00 92 1007.9
20260507053631 11 272 0.0 1.6 0.00 0.58 0.00 92 1007.9
20260507053131 11 272 0.0 3.2 0.00 0.58 0.00 92 1007.8
20260507052631 11 272 0.0 3.2 0.00 0.58 0.00 92 1007.7
20260507052132 11 272 0.0 4.8 0.00 0.58 0.00 92 1007.7
20260507051631 11 272 0.0 4.8 0.00 0.58 0.00 92 1007.9
20260507051130 11 265 0.0 3.2 0.00 0.58 0.00 92 1007.7
20260507050629 11 28 0.0 1.6 0.00 0.58 0.00 92 1007.6
20260507050130 11 28 0.0 6.4 0.00 0.58 0.00 92 1007.5
20260507045629 11 28 1.6 6.4 0.00 0.58 0.00 92 1007.3
20260507045124 11 260 0.0 3.2 0.00 0.58 0.00 92 1007.6
20260507044617 11 260 0.0 4.8 0.00 0.58 0.00 92 1007.6
20260507044111 11 260 0.0 4.8 0.00 0.58 0.00 92 1007.7
20260507043610 11 237 0.0 1.6 0.00 0.58 0.00 92 1007.6
20260507043108 11 237 0.0 3.2 0.00 0.58 0.00 92 1007.7
20260507042608 12 237 0.0 3.2 0.00 0.58 0.00 92 1007.7
20260507042356 12 237 0.0 1.6 0.00 0.58 0.00 92 1007.8
20260507041602 12 237 0.0 6.4 0.00 0.58 0.00 92 1007.9
20260507041102 12 232 1.6 6.4 0.00 0.58 0.00 92 1007.9
20260507040602 12 101 1.6 6.4 0.03 0.58 0.00 92 1007.7
20260507035604 12 255 0.0 4.8 0.03 0.58 0.58 92 1007.4
20260507035104 12 205 0.0 6.4 0.03 0.58 0.58 92 1007.2
20260507034603 13 205 1.6 6.4 0.03 0.58 0.58 92 1007.2
20260507034102 13 205 1.6 8.0 0.03 0.58 0.58 92 1007.1
20260507033600 13 298 1.6 8.0 0.03 0.58 0.58 93 1007.0
20260507033103 13 171 1.6 4.8 0.03 0.58 0.58 93 1007.0
20260507032604 13 192 1.6 4.8 0.03 0.58 0.58 93 1006.9
20260507032101 13 294 1.6 12.9 0.03 0.58 0.58 93 1006.8
20260507031601 14 274 3.2 12.9 0.03 0.58 0.58 93 1006.9
20260507031103 14 275 1.6 9.7 0.03 0.58 0.58 94 1007.0
20260507030600 15 271 1.6 9.7 0.00 0.56 0.56 94 1007.0
20260507030053 15 264 1.6 9.7 0.00 0.56 0.56 94 1006.6
20260507025547 15 53 1.6 9.7 0.00 0.56 0.56 94 1006.5
20260507025042 15 200 1.6 4.8 0.00 0.56 0.56 94 1006.5
20260507024834 15 109 0.0 4.8 0.00 0.56 0.56 94 1006.5
20260507024038 15 109 1.6 4.8 0.00 0.56 0.56 94 1006.4
20260507023913 15 132 0.0 4.8 0.00 0.56 0.56 94 1006.3
20260507023907 15 132 1.6 4.8 0.00 0.56 0.56 94 1006.3
20260507022535 15 268 0.0 4.8 0.00 0.56 0.56 94 1006.2
20260507022035 15 268 1.6 4.8 0.00 0.56 0.56 94 1006.1
20260507021532 15 265 0.0 4.8 0.00 0.56 0.56 94 1006.2
20260507021326 15 265 1.6 4.8 0.00 0.56 0.56 94 1006.2
20260507020826 15 267 1.6 8.0 0.00 0.56 0.56 94 1006.1
20260507020031 15 207 1.6 8.0 0.00 0.56 0.56 94 1006.2
20260507015531 15 241 1.6 11.3 0.00 0.56 0.56 94 1006.3
20260507015031 15 252 1.6 11.3 0.00 0.56 0.56 94 1006.3
20260507014530 15 119 1.6 9.7 0.00 0.56 0.56 94 1006.3
20260507014323 15 174 1.6 9.7 0.00 0.56 0.56 94 1006.3
20260507013530 15 267 1.6 9.7 0.00 0.56 0.56 94 1006.4
20260507013030 15 286 1.6 9.7 0.00 0.56 0.56 94 1006.3
20260507012818 15 126 1.6 4.8 0.00 0.56 0.56 94 1006.4
20260507012030 15 163 1.6 6.4 0.00 0.56 0.56 94 1006.4
20260507011530 15 157 1.6 6.4 0.00 0.56 0.56 94 1006.4
20260507011029 15 126 1.6 6.4 0.00 0.56 0.56 94 1006.4
20260507010525 15 135 1.6 6.4 0.00 0.56 0.56 94 1006.4